FENGYUN 1C DEB, 35088

Orbit data source: Space-Track

FENGYUN 1C DEB, 35088 is space debris in LEO originally from a launch on Mon, 10 May 1999 UTC launched from the Taiyaun Space Center, China (TSC). Fengyun 1C debris stems from the Chinese weather satellite Fengyun-1C, which was intentionally destroyed by a Chinese anti-satellite missile in 2007. This event dramatically increased the amount of space debris, with thousands of trackable fragments posing hazards to satellites and human spaceflight. The Fengyun 1C debris cloud has become a focal point in discussions about space sustainability and the need for international regulations to prevent the creation of new debris.

Loading next visibility...
Identifier
35088, 1999-025DJQ
Orbit
LEO
Country
Flag of CNCN / PRC
Related business
Manufacturer
Unknown
Mission
Spacecraft
Bus & Motor
Unknown
Mass
Unknown
Launch date (UTC)
1999-05-10 (27 years ago)
Launch vehicle
Unknown
Launch site
Taiyaun Space Center, China (TSC)
Object type
Payload
Rocket body
Debris
Shape & HBR
Unknown shape, 0.1 m
Radar Cross Section
Small (<0.1 m²)

Expand to show TLE details & history
Last TLE update: 4 days ago

TLE from 4 days ago
0 FENGYUN 1C DEB
1 35088U 99025DJQ 26204.45860633  .00010301  00000-0  37509-2 0  9999
2 35088  94.6222 278.1343 0251229 226.1166 131.9026 14.17154807619493
Epoch: 2026-07-23T11:00Z
TLE epoch observation values (Epoch: 2026-07-23T11:00:23.586Z)
Latitude
-0.00014°
Longitude
171.83674°
Altitude
961.514 km
Speed
7.308 km/s
True Right ascension
18h 32m 32s
True Declination
0° 00' 01"
Sunlit
Object was in full shadow at epoch
Visualization orbit readout
Latitude
Unknown
Longitude
Unknown
Altitude
Unknown
Speed
Unknown
Apparent Right ascension
Unknown
Apparent Declination
Unknown
Sunlit
N/A
Visualization observer readout
Local Sidereal Time
17:44:16
Azimuth
Unknown
Elevation
Unknown
Doppler factor
Unknown
Orbital elements
Apogee altitude
1,013.14 km
Perigee altitude
650.861 km
Semi-major axis
7,210.137 km
Eccentricity
0.02512
Inclination
94.6222°
RAAN
278.1343°
Arg. of periapsis
226.1166°
True anomaly
134.00077°
Mean anomaly
131.9026°
Eccentric anomaly
132.95609°
Mean motion
3.54509 °/min
Orbital period
101.55 mins
BSTAR
0.0037509
Loading maneuver chart data...
Computing Atmospheric mass density...

Documentation

Showing up to 5 results
|